Weather History for KFTY - February, 2014

Change the Weather History Date:

Thursday, February 6, 2014

  Actual Average Record
Temperature  
Mean Temperature 35 °F 45 °F  
Max Temperature 41 °F 55 °F 75 °F (1999)
Min Temperature 28 °F 34 °F 20 °F (2015)
Degree Days  
Heating Degree Days 30 20  
Month to date heating degree days 124 124  
Since 1 July heating degree days 2158 1940  
Moisture  
Dew Point 22 °F    
Average Humidity 63    
Maximum Humidity 75    
Minimum Humidity 51    
Precipitation  
Precipitation T in 0.14 in 2.35 in (2006)
Month to date precipitation 0.93 0.89  
Year to date precipitation 3.53 5.16  
Snow  
Snow 0.00 in - - ()
Month to date snowfall 0.0  
Since 1 July snowfall T  
Snow Depth 0.00 in    
Sea Level Pressure  
Sea Level Pressure 30.29 in    
Wind  
Wind Speed 7 mph (NNW)    
Max Wind Speed 18 mph    
Max Gust Speed 25 mph    
Visibility 10 miles    
Events      
T = Trace of Precipitation, MM = Missing Value Source: NWS Daily Summary

Daily Weather History Graph

Daily Weather History Graph

Search for Another Location

Airport or City:

Trip Planner

Search our weather history database for the weather conditions in past years. The results will help you decide how hot, cold, wet, or windy it might be!

Date:

Astronomy

Feb. 06, 2014 Rise Set
Actual Time 7:30 AM EST 6:13 PM EST
Civil Twilight 7:04 AM EST 6:39 PM EST
Nautical Twilight 6:35 AM EST 7:09 PM EST
Astronomical Twilight 6:06 AM EST 7:38 PM EST
Moon 11:46 AM EST (2/6) 12:45 AM EST (2/6)
Length of Visible Light 11h 34m
Length of Day
10h 43m
Waxing Crescent, 49% of the Moon is Illuminated
Feb 6
Waxing Crescent
Feb 6
First Quarter
Feb 14
Full
Feb 22
Last Quarter
Mar 1
New

Hourly Weather History & Observations

Time (EST) Temp. Windchill Dew Point Humidity Pressure Visibility Wind Dir Wind Speed Gust Speed Precip Events Conditions
12:53 AM 30.0 °F 19.5 °F 21.9 °F 72% 30.24 in 10.0 mi North 13.8 mph 23.0 mph N/A   Overcast
1:53 AM 28.9 °F 19.2 °F 21.0 °F 72% 30.25 in 10.0 mi NW 11.5 mph 19.6 mph N/A   Mostly Cloudy
2:18 AM 28.4 °F 18.0 °F 19.4 °F 69% 30.23 in 10.0 mi NNW 12.7 mph 23.0 mph N/A   Scattered Clouds
2:53 AM 28.9 °F 18.2 °F 19.9 °F 69% 30.24 in 10.0 mi NNW 13.8 mph 18.4 mph N/A   Clear
3:53 AM 28.9 °F 20.4 °F 19.9 °F 69% 30.25 in 10.0 mi NW 9.2 mph - N/A   Partly Cloudy
4:53 AM 28.0 °F 22.8 °F 19.9 °F 72% 30.27 in 10.0 mi WNW 4.6 mph - N/A   Clear
5:53 AM 28.9 °F 19.8 °F 19.9 °F 69% 30.27 in 10.0 mi NW 10.4 mph - N/A   Clear
6:53 AM 28.9 °F 21.1 °F 19.9 °F 69% 30.29 in 10.0 mi North 8.1 mph - N/A   Clear
7:53 AM 28.9 °F 21.1 °F 19.9 °F 69% 30.32 in 10.0 mi NNW 8.1 mph - N/A   Clear
8:53 AM 30.0 °F 25.2 °F 21.0 °F 69% 30.33 in 10.0 mi Variable 4.6 mph - N/A   Clear
9:53 AM 32.0 °F 24.8 °F 21.9 °F 66% 30.33 in 10.0 mi NNW 8.1 mph - N/A   Clear
10:53 AM 36.0 °F 31.1 °F 23.0 °F 59% 30.35 in 10.0 mi NW 5.8 mph - N/A   Clear
11:53 AM 39.9 °F - 25.0 °F 55% 30.33 in 10.0 mi Calm Calm - N/A   Clear
12:53 PM 41.0 °F 38.0 °F 25.0 °F 53% 30.30 in 10.0 mi NE 4.6 mph - N/A   Clear
1:53 PM 39.0 °F 32.8 °F 24.1 °F 55% 30.26 in 10.0 mi NW 9.2 mph - N/A   Clear
2:53 PM 39.9 °F 34.5 °F 24.1 °F 53% 30.22 in 10.0 mi North 8.1 mph - N/A   Mostly Cloudy
3:53 PM 37.9 °F 31.5 °F 24.1 °F 57% 30.28 in 10.0 mi WNW 9.2 mph - N/A   Overcast
4:53 PM 37.0 °F 29.8 °F 23.0 °F 57% 30.32 in 10.0 mi NW 10.4 mph - N/A   Partly Cloudy
5:53 PM 36.0 °F 28.5 °F 23.0 °F 59% 30.32 in 10.0 mi NW 10.4 mph - N/A   Scattered Clouds
6:53 PM 34.0 °F - 25.0 °F 70% 30.33 in 9.0 mi Calm Calm - 0.00 in   Overcast
7:53 PM 34.0 °F 28.0 °F 23.0 °F 64% 30.32 in 10.0 mi NNW 6.9 mph - N/A   Overcast
8:53 PM 34.0 °F 31.0 °F 24.1 °F 67% 30.32 in 10.0 mi NW 3.5 mph - N/A   Overcast
9:53 PM 35.1 °F 30.1 °F 21.9 °F 59% 30.32 in 10.0 mi NNW 5.8 mph - N/A   Overcast
10:53 PM 35.1 °F - 21.9 °F 59% 30.30 in 10.0 mi Calm Calm - N/A   Overcast
11:53 PM 34.0 °F 29.8 °F 23.0 °F 64% 30.29 in 10.0 mi NW 4.6 mph - N/A   Mostly Cloudy